DK2OO-6 Weather Reports


Display with metric or nautical units.
time (UTC)temp
F
wind
direction
speed
MPH
gust
MPH
rain 1hr
in
rain 24hr
in
rain mn
in
humidity
%
barometer
mb
20260506041015 44 225 0.0 0.0 0.00 5.20 0.00 79 1001.7
20260505225811 54 225 0.0 0.0 0.00 5.20 0.00 72 1002.7
20260505222753 55 225 0.0 2.0 0.00 5.20 0.00 72 1002.8
20260505221752 55 247 0.0 0.0 0.00 5.20 0.00 72 1002.6
20260505200707 57 270 0.0 0.0 0.00 5.20 0.00 71 1002.3
20260505192648 57 270 0.0 0.0 0.00 5.20 0.00 71 1001.8
20260505184625 58 270 0.0 0.0 0.00 5.20 0.00 70 1001.6
20260505165551 59 270 0.0 0.0 0.00 1.04 0.00 69 1000.9
20260505164541 59 270 0.0 0.0 0.00 1.04 0.00 69 1001.0
20260505162539 60 270 0.0 0.0 0.00 1.04 0.00 68 1001.0
20260505124400 70 180 2.0 2.0 1.29 1.04 0.00 52 1001.4
20260505112322 73 202 0.0 0.0 0.00 5.20 0.00 48 1001.1
20260505110307 74 202 0.0 0.0 0.00 5.20 0.00 47 1001.2
20260505101248 74 180 0.0 0.0 0.00 5.20 0.00 49 1001.7
20260505093238 72 247 0.0 0.0 0.00 1.03 0.00 54 1002.0
20260505085229 68 202 0.0 0.0 0.00 1.03 0.00 61 1002.4
20260505083220 66 202 0.0 0.0 0.00 1.03 0.00 61 1002.5
20260505081201 67 225 0.0 0.0 0.00 1.03 0.00 61 1002.7
20260505072154 61 247 0.0 0.0 0.00 1.03 0.00 70 1003.2
20260505054105 51 247 0.0 0.0 0.00 1.03 0.00 72 1003.7